Home > Weather > Nordhausen > Past weeks

Flag for Germany Past Weather in Nordhausen, Thuringia, Germany — Yesterday and Last 2 Weeks

Now
66 °F

Scattered clouds.


Feels Like: 66 °F
Forecast: 58 / 73 °F
Wind: 8 mph from Southwest

Location: Erfurt-Bindersleben

Current Time: Jul 29, 2016 at 10:01:50 AM

Latest Report: Jul 29, 2016 at 9:20 AM


Visibility: N/A

Pressure: 29.98 "Hg

Humidity: 78%

Dew Point: 59 °F

Location of NordhausenLocation

Past Weather in Nordhausen — Graph

°F

Nordhausen Temperature Yesterday

Maximum temperature yesterday: 77 °F (at 3:20 PM)
Minimum temperature yesterday: 57 °F (at 3:20 AM)
Average temperature yesterday: 67 °F

High & Low Weather Summary for the Past Weeks

 TemperatureHumidityPressure
High88 °F (Jul 20, 2:50 PM)100% (Jul 17, 11:50 PM)30.30 "Hg (Jul 17, 11:50 PM)
Low46 °F (Jul 16, 4:50 AM)27% (Jul 20, 2:50 PM)29.89 "Hg (Jul 21, 5:20 AM)
Average68 °F72%30.09 "Hg
* Reported Jul 14 8:20 AM — Jul 29 8:50 AM, Nordhausen, Weather by CustomWeather, © 2016

Note: Actual official high and low records may vary slightly from our data, if they occured in-between our weather recording intervals... More about our weather records

Advertising

Nordhausen Weather History for the Previous 24 Hours

Scroll right to see more
 ConditionsComfort  
Time TempWeatherWind HumidityBarometerVisibility
8:50 AM
Fri, Jul 29
66 °FScattered clouds.7 mph83%29.95 "HgN/A
8:20 AM66 °FScattered clouds.5 mph83%29.95 "HgN/A
7:50 AM64 °FScattered clouds.5 mph83%29.95 "HgN/A
7:20 AM63 °FPartly sunny.6 mph88%29.95 "HgN/A
6:50 AM61 °FPartly sunny.7 mph94%29.95 "HgN/A
6:20 AM61 °FClear.7 mph94%29.95 "Hg10 mi
5:50 AM59 °FClear.7 mph94%29.95 "Hg10 mi
5:20 AM59 °FClear.7 mph100%29.95 "Hg10 mi
4:50 AM59 °FClear.9 mph94%29.95 "Hg10 mi
4:20 AM59 °FClear.8 mph100%29.95 "Hg10 mi
3:50 AM61 °FClear.8 mph94%29.95 "Hg10 mi
3:20 AM61 °FClear.9 mph94%29.95 "Hg10 mi
2:50 AM61 °FClear.9 mph94%29.95 "Hg10 mi
2:20 AM63 °FClear.9 mph88%29.95 "Hg10 mi
1:50 AM63 °FPassing clouds.8 mph88%29.95 "HgN/A
1:20 AM63 °FLight rain. Partly cloudy.9 mph94%29.95 "HgN/A
12:50 AM64 °FLight rain. Partly cloudy.14 mph88%29.98 "HgN/A
12:20 AM63 °FClear.8 mph94%29.95 "Hg10 mi
11:50 PM
Thu, Jul 28
64 °FSprinkles. Partly cloudy.10 mph88%29.98 "HgN/A
11:20 PM66 °FScattered showers. Partly cloudy.7 mph73%29.95 "HgN/A
10:50 PM66 °FClear.6 mph68%29.98 "Hg10 mi
10:20 PM66 °FClear.7 mph68%29.98 "Hg10 mi
9:50 PM66 °FSunny.7 mph68%29.98 "Hg10 mi
9:20 PM68 °FPartly sunny.8 mph64%29.98 "HgN/A
8:50 PM68 °FScattered showers. Scattered clouds.8 mph64%29.95 "HgN/A
8:20 PM70 °FScattered showers. Scattered clouds.8 mph60%29.95 "HgN/A
7:50 PM72 °FSprinkles. Passing clouds.9 mph61%29.95 "HgN/A
7:20 PM73 °FScattered showers. Scattered clouds.10 mph57%29.95 "HgN/A
6:50 PM75 °FScattered clouds.9 mph54%29.95 "HgN/A
6:20 PM75 °FScattered clouds.6 mph54%29.95 "HgN/A
5:50 PM75 °FScattered clouds.12 mph54%29.98 "HgN/A
5:20 PM75 °FScattered clouds.9 mph54%29.98 "HgN/A
4:50 PM73 °FScattered clouds.10 mph57%29.98 "HgN/A
4:20 PM75 °FScattered clouds.9 mph57%30.01 "HgN/A
3:50 PM75 °FScattered clouds.8 mph54%30.01 "HgN/A
3:20 PM77 °FScattered clouds.9 mph51%30.01 "HgN/A
2:50 PM75 °FScattered clouds.8 mph54%30.01 "HgN/A
2:20 PM73 °FPartly sunny.7 mph57%30.01 "HgN/A
1:50 PM73 °FBroken clouds.8 mph53%30.04 "HgN/A
1:20 PM72 °FBroken clouds.10 mph61%30.04 "HgN/A
12:50 PM72 °FScattered clouds.7 mph57%30.04 "HgN/A
12:20 PM72 °FPartly sunny.7 mph57%30.04 "HgN/A
11:50 AM72 °FPartly sunny.6 mph61%30.04 "HgN/A
11:20 AM72 °FBroken clouds.6 mph61%30.04 "HgN/A
10:50 AM72 °FBroken clouds.3 mph57%30.07 "HgN/A
10:20 AM68 °FPartly sunny.3 mph64%30.07 "HgN/A
Weather by CustomWeather, © 2016

See weather overviewHow to use our weather pages